Location: Unspecified
(47.2333°N, 39.7000°E)
Time: 23:34:16
(UTC+00:00)

ISS - Pass Details

Date: 10 July 2022
Orbit: 412 x 420 km, 51.6° (Epoch: 17 August)

Event Time Altitude Azimuth Distance (km) Brightness Sun altitude
Exits shadow 22:06:43 - 278° (W) 1,908 -0.4 -20.0°
Reaches altitude 10° 22:07:47 10° 283° (WNW) 1,495 -0.9 -20.0°
Maximum altitude 22:10:57 39° 353° (N) 649 -2.3 -19.9°
Drops below altitude 10° 22:14:09 10° 65° (ENE) 1,502 -0.5 -19.8°
Sets 22:16:20 0° 73° (ENE) 2,368 0.5 -19.7°
